owner,sensor,date,latitude,longitude,vertical_datum,direction_of_sea_water_velocity,sea_water_speed,upward_sea_water_velocity,qcFlag 
TABS,ioos:station:wmo:42049:1,2004-11-01T00:00:00Z,28.3507,-96.0058,2.0,352.5575928,26.40243928,-99999.0,'11111222,11111222,99999999' 
TABS,ioos:station:wmo:42049:1,2004-11-01T00:30:00Z,28.3507,-96.0058,2.0,351.5891271,22.49192299,-99999.0,'11111222,11111222,99999999' 
TABS,ioos:station:wmo:42049:1,2004-11-01T01:00:00Z,28.3507,-96.0058,2.0,352.548544,18.27433446,-99999.0,'11111222,11111222,99999999' 
TABS,ioos:station:wmo:42049:1,2004-11-01T01:30:00Z,28.3507,-96.0058,2.0,358.7741666,18.69427987,-99999.0,'11111222,11111222,99999999' 
TABS,ioos:station:wmo:42049:1,2004-11-01T02:00:00Z,28.3507,-96.0058,2.0,349.0096101,19.35500194,-99999.0,'11111222,11111222,99999999' 
TABS,ioos:station:wmo:42049:1,2004-11-01T02:30:00Z,28.3507,-96.0058,2.0,347.2051693,16.57149661,-99999.0,'11111222,11111222,99999999' 
TABS,ioos:station:wmo:42049:1,2004-11-01T03:00:00Z,28.3507,-96.0058,2.0,1.647006641,16.00661113,-99999.0,'11111222,11111222,99999999' 
TABS,ioos:station:wmo:42049:1,2004-11-01T03:30:00Z,28.3507,-96.0058,2.0,3.898710162,13.09029029,-99999.0,'11111222,11111222,99999999' 
TABS,ioos:station:wmo:42049:1,2004-11-01T04:00:00Z,28.3507,-96.0058,2.0,352.8641059,12.7991445,-99999.0,'11111222,11111222,99999999' 
TABS,ioos:station:wmo:42049:1,2004-11-01T04:30:00Z,28.3507,-96.0058,2.0,350.1227318,16.78886536,-99999.0,'11111222,11111222,99999999' 
TABS,ioos:station:wmo:42049:1,2004-11-01T05:00:00Z,28.3507,-96.0058,2.0,341.4091862,17.40840314,-99999.0,'11111222,11111222,99999999' 
TABS,ioos:station:wmo:42049:1,2004-11-01T05:30:00Z,28.3507,-96.0058,2.0,344.5216085,14.83818048,-99999.0,'11111222,11111222,99999999' 
TABS,ioos:station:wmo:42049:1,2004-11-01T06:00:00Z,28.3507,-96.0058,2.0,341.4777159,14.48008633,-99999.0,'11111222,11111222,99999999' 
TABS,ioos:station:wmo:42049:1,2004-11-01T06:30:00Z,28.3507,-96.0058,2.0,354.8188973,15.8347024,-99999.0,'11111222,11111222,99999999' 
TABS,ioos:station:wmo:42049:1,2004-11-01T07:00:00Z,28.3507,-96.0058,2.0,10.32506227,17.91001117,-99999.0,'11111222,11111222,99999999' 
TABS,ioos:station:wmo:42049:1,2004-11-01T07:30:00Z,28.3507,-96.0058,2.0,354.237591,17.52858237,-99999.0,'11111222,11111222,99999999' 
TABS,ioos:station:wmo:42049:1,2004-11-01T08:00:00Z,28.3507,-96.0058,2.0,0.658752096,17.40114939,-99999.0,'11111222,11111222,99999999' 
TABS,ioos:station:wmo:42049:1,2004-11-01T08:30:00Z,28.3507,-96.0058,2.0,1.04932673,15.29256355,-99999.0,'11111222,11111222,99999999' 
TABS,ioos:station:wmo:42049:1,2004-11-01T09:00:00Z,28.3507,-96.0058,2.0,354.298865,18.5216225,-99999.0,'11111222,11111222,99999999' 
TABS,ioos:station:wmo:42049:1,2004-11-01T09:30:00Z,28.3507,-96.0058,2.0,358.659603,11.11304189,-99999.0,'11111222,11111222,99999999' 
TABS,ioos:station:wmo:42049:1,2004-11-01T10:00:00Z,28.3507,-96.0058,2.0,1.225095189,12.16277929,-99999.0,'11111222,11111222,99999999' 
TABS,ioos:station:wmo:42049:1,2004-11-01T11:00:00Z,28.3507,-96.0058,2.0,2.477803533,10.40973102,-99999.0,'11111222,11111222,99999999' 
TABS,ioos:station:wmo:42049:1,2004-11-01T11:30:00Z,28.3507,-96.0058,2.0,354.3018044,9.366285283,-99999.0,'11133222,11111222,99999999' 
TABS,ioos:station:wmo:42049:1,2004-11-01T12:00:00Z,28.3507,-96.0058,2.0,8.527568251,16.72489163,-99999.0,'11111222,11111222,99999999' 
TABS,ioos:station:wmo:42049:1,2004-11-01T12:30:00Z,28.3507,-96.0058,2.0,30.37174993,20.41113667,-99999.0,'11111222,11111222,99999999' 
TABS,ioos:station:wmo:42049:1,2004-11-01T13:00:00Z,28.3507,-96.0058,2.0,30.82820653,19.55260852,-99999.0,'11111222,11111222,99999999' 
TABS,ioos:station:wmo:42049:1,2004-11-01T13:30:00Z,28.3507,-96.0058,2.0,25.16026635,19.33438388,-99999.0,'11111222,11111222,99999999' 
TABS,ioos:station:wmo:42049:1,2004-11-01T14:00:00Z,28.3507,-96.0058,2.0,64.58824073,15.77641911,-99999.0,'11111222,11111222,99999999' 
TABS,ioos:station:wmo:42049:1,2004-11-01T14:30:00Z,28.3507,-96.0058,2.0,129.2518042,19.34471504,-99999.0,'11111222,11111222,99999999' 
TABS,ioos:station:wmo:42049:1,2004-11-01T15:00:00Z,28.3507,-96.0058,2.0,145.4316332,12.84836565,-99999.0,'11111222,11111222,99999999' 
TABS,ioos:station:wmo:42049:1,2004-11-01T15:30:00Z,28.3507,-96.0058,2.0,144.1799526,8.731466085,-99999.0,'11133222,11111222,99999999' 
TABS,ioos:station:wmo:42049:1,2004-11-01T16:00:00Z,28.3507,-96.0058,2.0,187.7284085,4.238502094,-99999.0,'11133222,11111222,99999999' 
TABS,ioos:station:wmo:42049:1,2004-11-01T16:30:00Z,28.3507,-96.0058,2.0,186.3805345,9.357969865,-99999.0,'11133222,11111222,99999999' 
TABS,ioos:station:wmo:42049:1,2004-11-01T17:00:00Z,28.3507,-96.0058,2.0,191.2999098,11.48259988,-99999.0,'11111222,11111222,99999999' 
TABS,ioos:station:wmo:42049:1,2004-11-01T17:30:00Z,28.3507,-96.0058,2.0,231.5718831,12.72670421,-99999.0,'11111222,11111222,99999999' 
TABS,ioos:station:wmo:42049:1,2004-11-01T18:00:00Z,28.3507,-96.0058,2.0,233.1013378,12.09200149,-99999.0,'11111222,11111222,99999999' 
TABS,ioos:station:wmo:42049:1,2004-11-01T18:30:00Z,28.3507,-96.0058,2.0,248.0620497,16.40808642,-99999.0,'11111222,11111222,99999999' 
TABS,ioos:station:wmo:42049:1,2004-11-01T19:00:00Z,28.3507,-96.0058,2.0,261.2255573,18.74941332,-99999.0,'11111222,11111222,99999999' 
TABS,ioos:station:wmo:42049:1,2004-11-01T19:30:00Z,28.3507,-96.0058,2.0,260.9182214,17.80315983,-99999.0,'11111222,11111222,99999999' 
TABS,ioos:station:wmo:42049:1,2004-11-01T20:00:00Z,28.3507,-96.0058,2.0,264.5314972,30.32801016,-99999.0,'11111222,11111222,99999999' 
TABS,ioos:station:wmo:42049:1,2004-11-01T20:30:00Z,28.3507,-96.0058,2.0,266.7091068,31.88256263,-99999.0,'11111222,11111222,99999999' 
TABS,ioos:station:wmo:42049:1,2004-11-01T21:00:00Z,28.3507,-96.0058,2.0,274.1400036,27.98300377,-99999.0,'11111222,11111222,99999999' 
TABS,ioos:station:wmo:42049:1,2004-11-01T21:30:00Z,28.3507,-96.0058,2.0,277.7337737,30.84049448,-99999.0,'11111222,11111222,99999999' 
TABS,ioos:station:wmo:42049:1,2004-11-01T22:00:00Z,28.3507,-96.0058,2.0,274.9511508,28.73721107,-99999.0,'11111222,11111222,99999999' 
TABS,ioos:station:wmo:42049:1,2004-11-01T22:30:00Z,28.3507,-96.0058,2.0,267.4695975,32.62179793,-99999.0,'11111222,11111222,99999999' 
TABS,ioos:station:wmo:42049:1,2004-11-01T23:00:00Z,28.3507,-96.0058,2.0,270.1584048,32.64012408,-99999.0,'11111222,11111222,99999999' 
TABS,ioos:station:wmo:42049:1,2004-11-01T23:30:00Z,28.3507,-96.0058,2.0,274.2346654,29.66095919,-99999.0,'11111222,11111222,99999999' 
TABS,ioos:station:wmo:42049:1,2004-11-02T00:00:00Z,28.3507,-96.0058,2.0,278.1360979,28.97157918,-99999.0,'11111222,11111222,99999999' 
TABS,ioos:station:wmo:42049:1,2004-11-02T00:30:00Z,28.3507,-96.0058,2.0,275.5619787,24.86705853,-99999.0,'11111222,11111222,99999999' 
TABS,ioos:station:wmo:42049:1,2004-11-02T01:00:00Z,28.3507,-96.0058,2.0,276.5146902,26.53129661,-99999.0,'11111222,11111222,99999999' 
TABS,ioos:station:wmo:42049:1,2004-11-02T01:30:00Z,28.3507,-96.0058,2.0,279.9256083,27.26810591,-99999.0,'11111222,11111222,99999999' 
TABS,ioos:station:wmo:42049:1,2004-11-02T02:00:00Z,28.3507,-96.0058,2.0,279.5655446,24.73386747,-99999.0,'11111222,11111222,99999999' 
TABS,ioos:station:wmo:42049:1,2004-11-02T02:30:00Z,28.3507,-96.0058,2.0,284.7258692,27.42063639,-99999.0,'11111222,11111222,99999999' 
TABS,ioos:station:wmo:42049:1,2004-11-02T03:00:00Z,28.3507,-96.0058,2.0,302.9200263,19.59655582,-99999.0,'11111222,11111222,99999999' 
TABS,ioos:station:wmo:42049:1,2004-11-02T03:30:00Z,28.3507,-96.0058,2.0,307.3567838,20.25473031,-99999.0,'11111222,11111222,99999999' 
TABS,ioos:station:wmo:42049:1,2004-11-02T04:00:00Z,28.3507,-96.0058,2.0,313.8101342,20.42565054,-99999.0,'11111222,11111222,99999999' 
TABS,ioos:station:wmo:42049:1,2004-11-02T04:30:00Z,28.3507,-96.0058,2.0,318.4292198,20.57120803,-99999.0,'11111222,11111222,99999999' 
TABS,ioos:station:wmo:42049:1,2004-11-02T05:00:00Z,28.3507,-96.0058,2.0,324.5227274,14.40425284,-99999.0,'11111222,11111222,99999999' 
TABS,ioos:station:wmo:42049:1,2004-11-02T05:30:00Z,28.3507,-96.0058,2.0,322.4067693,18.21145244,-99999.0,'11111222,11111222,99999999' 
TABS,ioos:station:wmo:42049:1,2004-11-02T06:00:00Z,28.3507,-96.0058,2.0,322.9961051,11.94603281,-99999.0,'11111222,11111222,99999999' 
TABS,ioos:station:wmo:42049:1,2004-11-02T06:30:00Z,28.3507,-96.0058,2.0,313.57001,11.3313812,-99999.0,'11111222,11111222,99999999' 
TABS,ioos:station:wmo:42049:1,2004-11-02T07:00:00Z,28.3507,-96.0058,2.0,301.3636498,12.29674754,-99999.0,'11111222,11111222,99999999' 
TABS,ioos:station:wmo:42049:1,2004-11-02T07:30:00Z,28.3507,-96.0058,2.0,312.0827749,14.30917538,-99999.0,'11111222,11111222,99999999' 
TABS,ioos:station:wmo:42049:1,2004-11-02T08:00:00Z,28.3507,-96.0058,2.0,322.6590432,16.28855119,-99999.0,'11111222,11111222,99999999' 
TABS,ioos:station:wmo:42049:1,2004-11-02T08:30:00Z,28.3507,-96.0058,2.0,322.7635162,9.3701921,-99999.0,'11133222,11111222,99999999' 
TABS,ioos:station:wmo:42049:1,2004-11-02T09:00:00Z,28.3507,-96.0058,2.0,315.5933002,14.34796501,-99999.0,'11111222,11111222,99999999' 
TABS,ioos:station:wmo:42049:1,2004-11-02T09:30:00Z,28.3507,-96.0058,2.0,347.7590721,22.6857885,-99999.0,'11111222,11111222,99999999' 
TABS,ioos:station:wmo:42049:1,2004-11-02T10:00:00Z,28.3507,-96.0058,2.0,5.16007014,6.00433177,-99999.0,'11133222,11111222,99999999' 
TABS,ioos:station:wmo:42049:1,2004-11-02T10:30:00Z,28.3507,-96.0058,2.0,307.4113084,9.530424964,-99999.0,'11133222,11111222,99999999' 
TABS,ioos:station:wmo:42049:1,2004-11-02T11:00:00Z,28.3507,-96.0058,2.0,305.0126082,16.22652766,-99999.0,'11111222,11111222,99999999' 
TABS,ioos:station:wmo:42049:1,2004-11-02T11:30:00Z,28.3507,-96.0058,2.0,293.702321,18.53330516,-99999.0,'11111222,11111222,99999999' 
TABS,ioos:station:wmo:42049:1,2004-11-02T12:00:00Z,28.3507,-96.0058,2.0,269.2435703,17.43151743,-99999.0,'11111222,11111222,99999999' 
TABS,ioos:station:wmo:42049:1,2004-11-02T12:30:00Z,28.3507,-96.0058,2.0,260.6172127,22.38951987,-99999.0,'11111222,11111222,99999999' 
TABS,ioos:station:wmo:42049:1,2004-11-02T13:00:00Z,28.3507,-96.0058,2.0,263.0549942,23.24050344,-99999.0,'11111222,11111222,99999999' 
TABS,ioos:station:wmo:42049:1,2004-11-02T13:30:00Z,28.3507,-96.0058,2.0,257.388123,25.55660384,-99999.0,'11111222,11111222,99999999' 
TABS,ioos:station:wmo:42049:1,2004-11-02T14:00:00Z,28.3507,-96.0058,2.0,257.7422301,26.33022977,-99999.0,'11111222,11111222,99999999' 
TABS,ioos:station:wmo:42049:1,2004-11-02T14:30:00Z,28.3507,-96.0058,2.0,252.3251904,28.58950857,-99999.0,'11111222,11111222,99999999' 
TABS,ioos:station:wmo:42049:1,2004-11-02T15:00:00Z,28.3507,-96.0058,2.0,251.9843726,31.946186,-99999.0,'11111222,11111222,99999999' 
TABS,ioos:station:wmo:42049:1,2004-11-02T15:30:00Z,28.3507,-96.0058,2.0,246.1726265,32.2048397,-99999.0,'11111222,11111222,99999999' 
TABS,ioos:station:wmo:42049:1,2004-11-02T16:00:00Z,28.3507,-96.0058,2.0,245.4416574,30.7737583,-99999.0,'11111222,11111222,99999999' 
TABS,ioos:station:wmo:42049:1,2004-11-02T16:30:00Z,28.3507,-96.0058,2.0,247.0703262,29.05580837,-99999.0,'11111222,11111222,99999999' 
TABS,ioos:station:wmo:42049:1,2004-11-02T17:00:00Z,28.3507,-96.0058,2.0,239.3353816,29.52902978,-99999.0,'11111222,11111222,99999999' 
TABS,ioos:station:wmo:42049:1,2004-11-02T17:30:00Z,28.3507,-96.0058,2.0,236.5085328,31.15215081,-99999.0,'11111222,11111222,99999999' 
TABS,ioos:station:wmo:42049:1,2004-11-02T18:00:00Z,28.3507,-96.0058,2.0,233.6628655,32.67341427,-99999.0,'11111222,11111222,99999999' 
TABS,ioos:station:wmo:42049:1,2004-11-02T18:30:00Z,28.3507,-96.0058,2.0,232.870723,29.63830292,-99999.0,'11111222,11111222,99999999' 
TABS,ioos:station:wmo:42049:1,2004-11-02T19:00:00Z,28.3507,-96.0058,2.0,234.1771717,30.63511874,-99999.0,'11111222,11111222,99999999' 
TABS,ioos:station:wmo:42049:1,2004-11-02T19:30:00Z,28.3507,-96.0058,2.0,234.5672536,29.73735866,-99999.0,'11111222,11111222,99999999' 
TABS,ioos:station:wmo:42049:1,2004-11-02T20:00:00Z,28.3507,-96.0058,2.0,234.8268299,28.29641143,-99999.0,'11111222,11111222,99999999' 
TABS,ioos:station:wmo:42049:1,2004-11-02T20:30:00Z,28.3507,-96.0058,2.0,231.2266221,26.07638395,-99999.0,'11111222,11111222,99999999' 
TABS,ioos:station:wmo:42049:1,2004-11-02T21:00:00Z,28.3507,-96.0058,2.0,232.1886235,25.93549884,-99999.0,'11111222,11111222,99999999' 
TABS,ioos:station:wmo:42049:1,2004-11-02T21:30:00Z,28.3507,-96.0058,2.0,229.7597999,28.71565601,-99999.0,'11111222,11111222,99999999' 
TABS,ioos:station:wmo:42049:1,2004-11-02T22:00:00Z,28.3507,-96.0058,2.0,227.2849177,24.11737963,-99999.0,'11111222,11111222,99999999' 
TABS,ioos:station:wmo:42049:1,2004-11-02T22:30:00Z,28.3507,-96.0058,2.0,229.976838,25.99935576,-99999.0,'11111222,11111222,99999999' 
TABS,ioos:station:wmo:42049:1,2004-11-02T23:00:00Z,28.3507,-96.0058,2.0,231.1828873,23.37149118,-99999.0,'11111222,11111222,99999999' 
TABS,ioos:station:wmo:42049:1,2004-11-02T23:30:00Z,28.3507,-96.0058,2.0,232.9790205,19.76406841,-99999.0,'11111222,11111222,99999999' 
TABS,ioos:station:wmo:42049:1,2004-11-03T00:00:00Z,28.3507,-96.0058,2.0,229.5474914,20.42190246,-99999.0,'11111222,11111222,99999999' 
TABS,ioos:station:wmo:42049:1,2004-11-03T00:30:00Z,28.3507,-96.0058,2.0,212.4200914,19.025341,-99999.0,'11111222,11111222,99999999' 
TABS,ioos:station:wmo:42049:1,2004-11-03T01:00:00Z,28.3507,-96.0058,2.0,213.0316455,17.86807208,-99999.0,'11111222,11111222,99999999' 
TABS,ioos:station:wmo:42049:1,2004-11-03T01:30:00Z,28.3507,-96.0058,2.0,227.3889373,20.35408558,-99999.0,'11111222,11111222,99999999' 
TABS,ioos:station:wmo:42049:1,2004-11-03T02:00:00Z,28.3507,-96.0058,2.0,212.5474787,18.36422609,-99999.0,'11111222,11111222,99999999' 
TABS,ioos:station:wmo:42049:1,2004-11-03T02:30:00Z,28.3507,-96.0058,2.0,215.3055385,18.09874305,-99999.0,'11111222,11111222,99999999' 
TABS,ioos:station:wmo:42049:1,2004-11-03T03:00:00Z,28.3507,-96.0058,2.0,225.693194,18.11033131,-99999.0,'11111222,11111222,99999999' 
TABS,ioos:station:wmo:42049:1,2004-11-03T03:30:00Z,28.3507,-96.0058,2.0,225.4866044,14.97706246,-99999.0,'11111222,11111222,99999999' 
TABS,ioos:station:wmo:42049:1,2004-11-03T04:00:00Z,28.3507,-96.0058,2.0,215.4564092,17.27325389,-99999.0,'11111222,11111222,99999999' 
TABS,ioos:station:wmo:42049:1,2004-11-03T04:30:00Z,28.3507,-96.0058,2.0,215.1168999,18.37459659,-99999.0,'11111222,11111222,99999999' 
TABS,ioos:station:wmo:42049:1,2004-11-03T05:00:00Z,28.3507,-96.0058,2.0,213.6996077,16.16673746,-99999.0,'11111222,11111222,99999999' 
TABS,ioos:station:wmo:42049:1,2004-11-03T05:30:00Z,28.3507,-96.0058,2.0,212.2912581,14.43205114,-99999.0,'11111222,11111222,99999999' 
TABS,ioos:station:wmo:42049:1,2004-11-03T06:00:00Z,28.3507,-96.0058,2.0,203.4549995,10.55189083,-99999.0,'11111222,11111222,99999999' 
TABS,ioos:station:wmo:42049:1,2004-11-03T06:30:00Z,28.3507,-96.0058,2.0,202.8372566,14.37702681,-99999.0,'11111222,11111222,99999999' 
TABS,ioos:station:wmo:42049:1,2004-11-03T07:00:00Z,28.3507,-96.0058,2.0,196.6262969,11.32343146,-99999.0,'11111222,11111222,99999999' 
TABS,ioos:station:wmo:42049:1,2004-11-03T07:30:00Z,28.3507,-96.0058,2.0,214.8176985,9.440052966,-99999.0,'11133222,11111222,99999999' 
TABS,ioos:station:wmo:42049:1,2004-11-03T08:00:00Z,28.3507,-96.0058,2.0,210.6183234,9.110170141,-99999.0,'11133222,11111222,99999999' 
TABS,ioos:station:wmo:42049:1,2004-11-03T08:30:00Z,28.3507,-96.0058,2.0,193.3857191,8.12061574,-99999.0,'11133222,11111222,99999999' 
TABS,ioos:station:wmo:42049:1,2004-11-03T09:00:00Z,28.3507,-96.0058,2.0,196.3469632,7.638808808,-99999.0,'11133222,11111222,99999999' 
TABS,ioos:station:wmo:42049:1,2004-11-03T09:30:00Z,28.3507,-96.0058,2.0,156.3434917,6.080994984,-99999.0,'11133222,11111222,99999999' 
TABS,ioos:station:wmo:42049:1,2004-11-03T10:00:00Z,28.3507,-96.0058,2.0,182.1389739,9.376534541,-99999.0,'11133222,11111222,99999999' 
TABS,ioos:station:wmo:42049:1,2004-11-03T10:30:00Z,28.3507,-96.0058,2.0,245.8330058,1.709853795,-99999.0,'11133222,11111222,99999999' 
TABS,ioos:station:wmo:42049:1,2004-11-03T11:00:00Z,28.3507,-96.0058,2.0,184.6519334,5.548279012,-99999.0,'11133222,11111222,99999999' 
TABS,ioos:station:wmo:42049:1,2004-11-03T11:30:00Z,28.3507,-96.0058,2.0,166.3494023,3.601735693,-99999.0,'11133222,11111222,99999999' 
TABS,ioos:station:wmo:42049:1,2004-11-03T12:00:00Z,28.3507,-96.0058,2.0,166.7196359,6.616947937,-99999.0,'11133222,11111222,99999999' 
TABS,ioos:station:wmo:42049:1,2004-11-03T12:30:00Z,28.3507,-96.0058,2.0,185.7511782,2.794065139,-99999.0,'11133222,11111222,99999999' 
TABS,ioos:station:wmo:42049:1,2004-11-03T13:00:00Z,28.3507,-96.0058,2.0,185.7956624,5.347335785,-99999.0,'11133222,11111222,99999999' 
TABS,ioos:station:wmo:42049:1,2004-11-03T13:30:00Z,28.3507,-96.0058,2.0,178.5342585,8.992941677,-99999.0,'11133222,11111222,99999999' 
TABS,ioos:station:wmo:42049:1,2004-11-03T14:00:00Z,28.3507,-96.0058,2.0,164.8783015,6.018388489,-99999.0,'11133222,11111222,99999999' 
TABS,ioos:station:wmo:42049:1,2004-11-03T14:30:00Z,28.3507,-96.0058,2.0,166.4999915,5.440312491,-99999.0,'11133222,11111222,99999999' 
TABS,ioos:station:wmo:42049:1,2004-11-03T15:00:00Z,28.3507,-96.0058,2.0,179.4506468,3.130143767,-99999.0,'11133222,11111222,99999999' 
TABS,ioos:station:wmo:42049:1,2004-11-03T15:30:00Z,28.3507,-96.0058,2.0,204.2880177,5.178349158,-99999.0,'11133222,11111222,99999999' 
TABS,ioos:station:wmo:42049:1,2004-11-03T16:00:00Z,28.3507,-96.0058,2.0,163.4540794,3.93284884,-99999.0,'11133222,11111222,99999999' 
TABS,ioos:station:wmo:42049:1,2004-11-03T16:30:00Z,28.3507,-96.0058,2.0,183.7706396,4.409546462,-99999.0,'11133222,11111222,99999999' 
TABS,ioos:station:wmo:42049:1,2004-11-03T17:00:00Z,28.3507,-96.0058,2.0,125.2671925,2.216867159,-99999.0,'11133222,11111222,99999999' 
TABS,ioos:station:wmo:42049:1,2004-11-03T17:30:00Z,28.3507,-96.0058,2.0,227.8370884,4.856706703,-99999.0,'11133222,11111222,99999999' 
TABS,ioos:station:wmo:42049:1,2004-11-03T18:00:00Z,28.3507,-96.0058,2.0,227.3637584,3.085611771,-99999.0,'11133222,11111222,99999999' 
TABS,ioos:station:wmo:42049:1,2004-11-03T18:30:00Z,28.3507,-96.0058,2.0,200.6345616,2.553840246,-99999.0,'11133222,11111222,99999999' 
TABS,ioos:station:wmo:42049:1,2004-11-03T19:00:00Z,28.3507,-96.0058,2.0,123.3564905,2.382477702,-99999.0,'11133222,11111222,99999999' 
TABS,ioos:station:wmo:42049:1,2004-11-03T19:30:00Z,28.3507,-96.0058,2.0,133.5496819,3.352760057,-99999.0,'11133222,11111222,99999999' 
TABS,ioos:station:wmo:42049:1,2004-11-03T20:00:00Z,28.3507,-96.0058,2.0,146.4537594,2.20771375,-99999.0,'11133222,11111222,99999999' 
TABS,ioos:station:wmo:42049:1,2004-11-03T20:30:00Z,28.3507,-96.0058,2.0,98.04708633,5.857678721,-99999.0,'11133222,11111222,99999999' 
TABS,ioos:station:wmo:42049:1,2004-11-03T21:00:00Z,28.3507,-96.0058,2.0,114.9238807,4.840836705,-99999.0,'11133222,11111222,99999999' 
TABS,ioos:station:wmo:42049:1,2004-11-03T21:30:00Z,28.3507,-96.0058,2.0,106.5294911,1.616817862,-99999.0,'11133222,11111222,99999999' 
TABS,ioos:station:wmo:42049:1,2004-11-03T22:00:00Z,28.3507,-96.0058,2.0,62.97665556,2.795174413,-99999.0,'11133222,11111222,99999999' 
TABS,ioos:station:wmo:42049:1,2004-11-03T22:30:00Z,28.3507,-96.0058,2.0,42.32901999,3.489828076,-99999.0,'11133222,11111222,99999999' 
TABS,ioos:station:wmo:42049:1,2004-11-03T23:00:00Z,28.3507,-96.0058,2.0,34.0194809,5.308568545,-99999.0,'11133222,11111222,99999999' 
TABS,ioos:station:wmo:42049:1,2004-11-03T23:30:00Z,28.3507,-96.0058,2.0,46.40873067,5.17758631,-99999.0,'11133222,11111222,99999999' 
TABS,ioos:station:wmo:42049:1,2004-11-04T00:00:00Z,28.3507,-96.0058,2.0,63.3961137,6.58745778,-99999.0,'11133222,11111222,99999999' 
TABS,ioos:station:wmo:42049:1,2004-11-04T00:30:00Z,28.3507,-96.0058,2.0,33.1308042,5.397490157,-99999.0,'11133222,11111222,99999999' 
TABS,ioos:station:wmo:42049:1,2004-11-04T01:00:00Z,28.3507,-96.0058,2.0,45.16119847,7.544859177,-99999.0,'11133222,11111222,99999999' 
TABS,ioos:station:wmo:42049:1,2004-11-04T01:30:00Z,28.3507,-96.0058,2.0,65.34518513,8.318323148,-99999.0,'11133222,11111222,99999999' 
TABS,ioos:station:wmo:42049:1,2004-11-04T02:00:00Z,28.3507,-96.0058,2.0,24.50163906,9.06642708,-99999.0,'11133222,11111222,99999999' 
TABS,ioos:station:wmo:42049:1,2004-11-04T02:30:00Z,28.3507,-96.0058,2.0,57.00519627,6.629155301,-99999.0,'11133222,11111222,99999999' 
TABS,ioos:station:wmo:42049:1,2004-11-04T03:00:00Z,28.3507,-96.0058,2.0,27.54691376,7.308542946,-99999.0,'11133222,11111222,99999999' 
TABS,ioos:station:wmo:42049:1,2004-11-04T03:30:00Z,28.3507,-96.0058,2.0,50.80681856,8.386894539,-99999.0,'11133222,11111222,99999999' 
TABS,ioos:station:wmo:42049:1,2004-11-04T04:00:00Z,28.3507,-96.0058,2.0,44.20595902,7.142464561,-99999.0,'11133222,11111222,99999999' 
TABS,ioos:station:wmo:42049:1,2004-11-04T04:30:00Z,28.3507,-96.0058,2.0,52.32090303,8.212819248,-99999.0,'11133222,11111222,99999999' 
TABS,ioos:station:wmo:42049:1,2004-11-04T05:00:00Z,28.3507,-96.0058,2.0,68.52916199,7.403796324,-99999.0,'11133222,11111222,99999999' 
TABS,ioos:station:wmo:42049:1,2004-11-04T05:30:00Z,28.3507,-96.0058,2.0,64.40773581,7.639509147,-99999.0,'11133222,11111222,99999999' 
TABS,ioos:station:wmo:42049:1,2004-11-04T06:00:00Z,28.3507,-96.0058,2.0,52.69268658,6.286183262,-99999.0,'11133222,11111222,99999999' 
TABS,ioos:station:wmo:42049:1,2004-11-04T06:30:00Z,28.3507,-96.0058,2.0,83.95022465,5.882762956,-99999.0,'11133222,11111222,99999999' 
TABS,ioos:station:wmo:42049:1,2004-11-04T07:00:00Z,28.3507,-96.0058,2.0,76.73424842,6.493265742,-99999.0,'11133222,11111222,99999999' 
TABS,ioos:station:wmo:42049:1,2004-11-04T07:30:00Z,28.3507,-96.0058,2.0,77.928358,6.933318109,-99999.0,'11133222,11111222,99999999' 
TABS,ioos:station:wmo:42049:1,2004-11-04T08:00:00Z,28.3507,-96.0058,2.0,68.48059137,7.169783818,-99999.0,'11133222,11111222,99999999' 
TABS,ioos:station:wmo:42049:1,2004-11-04T08:30:00Z,28.3507,-96.0058,2.0,96.31998818,6.268093809,-99999.0,'11133222,11111222,99999999' 
TABS,ioos:station:wmo:42049:1,2004-11-04T09:00:00Z,28.3507,-96.0058,2.0,93.20947881,6.430085536,-99999.0,'11133222,11111222,99999999' 
TABS,ioos:station:wmo:42049:1,2004-11-04T09:30:00Z,28.3507,-96.0058,2.0,109.1540601,3.779219496,-99999.0,'11133222,11111222,99999999' 
TABS,ioos:station:wmo:42049:1,2004-11-04T10:00:00Z,28.3507,-96.0058,2.0,82.00254523,4.887535166,-99999.0,'11133222,11111222,99999999' 
TABS,ioos:station:wmo:42049:1,2004-11-04T11:00:00Z,28.3507,-96.0058,2.0,94.37417132,5.375658099,-99999.0,'11133222,11111222,99999999' 
TABS,ioos:station:wmo:42049:1,2004-11-04T11:30:00Z,28.3507,-96.0058,2.0,87.99252089,4.852978467,-99999.0,'11133222,11111222,99999999' 
TABS,ioos:station:wmo:42049:1,2004-11-04T12:00:00Z,28.3507,-96.0058,2.0,90.98586982,5.230774321,-99999.0,'11133222,11111222,99999999' 
TABS,ioos:station:wmo:42049:1,2004-11-04T12:30:00Z,28.3507,-96.0058,2.0,123.4961776,6.559367348,-99999.0,'11133222,11111222,99999999' 
TABS,ioos:station:wmo:42049:1,2004-11-04T13:00:00Z,28.3507,-96.0058,2.0,68.59864566,4.52179168,-99999.0,'11133222,11111222,99999999' 
TABS,ioos:station:wmo:42049:1,2004-11-04T13:30:00Z,28.3507,-96.0058,2.0,83.10357215,4.663743132,-99999.0,'11133222,11111222,99999999' 
TABS,ioos:station:wmo:42049:1,2004-11-04T14:00:00Z,28.3507,-96.0058,2.0,94.92709843,5.239360648,-99999.0,'11133222,11111222,99999999' 
TABS,ioos:station:wmo:42049:1,2004-11-04T14:30:00Z,28.3507,-96.0058,2.0,124.5084423,3.689132689,-99999.0,'11133222,11111222,99999999' 
TABS,ioos:station:wmo:42049:1,2004-11-04T15:00:00Z,28.3507,-96.0058,2.0,102.0114503,3.363643857,-99999.0,'11133222,11111222,99999999' 
TABS,ioos:station:wmo:42049:1,2004-11-04T15:30:00Z,28.3507,-96.0058,2.0,109.2228119,1.609751534,-99999.0,'11133222,11111222,99999999' 
TABS,ioos:station:wmo:42049:1,2004-11-04T16:00:00Z,28.3507,-96.0058,2.0,137.4395871,5.647831442,-99999.0,'11133222,11111222,99999999' 
TABS,ioos:station:wmo:42049:1,2004-11-04T16:30:00Z,28.3507,-96.0058,2.0,133.5713718,5.67275947,-99999.0,'11133222,11111222,99999999' 
TABS,ioos:station:wmo:42049:1,2004-11-04T17:00:00Z,28.3507,-96.0058,2.0,157.2417383,4.782321612,-99999.0,'11133222,11111222,99999999' 